Вернуться в каталог

DELTA 1 DEB

АктивенUNKNOWN
NORAD 27728·DEBRIS·🇺🇸 United States

Запущен Jul 29, 1976 с Vandenberg Space Force Base

Loading…

Ближайшие Пролёты (ближайшие 24 часа)

TLE

СвежийSource: Space-Track

Эпоха: Sep 14, 2026, 00:44 UTC

1 27728U 76077FT  26257.03078551 -.00000393  00000-0 -43070-2 0  9997
2 27728 102.4225 357.5367 0371266  31.5684 142.5033 11.85833643436814

Отслеживайте DELTA 1 DEB в реальном времени с AllMySat

Download on the App Store